THORAD AGENA D DEB

Satellite information

Favourite Embed

Satellite Type and Status

DEBRISIN ORBIT

Key statistics

Satellite THORAD AGENA D DEB at a glance.

Uptime

20292

Days in orbit

Revolutions

≈ 13.9

Per day

Orbit

SSO

Sun Synchronous Orbit

Inclination

99.9

Latest

Satellite identification and parameters

Extended collection of information and parameters for THORAD AGENA D DEB.

Object identification

Identified? True

Debris? True

Object name: THORAD AGENA D DEB

International designator: 1970-025RH

Object number (NORAD): 42503

Object ID (CCSDS): 42503

Country: UNITED STATES OF AMERICA (US)

Current information (Y/N): Y

RCS size: SMALL

Orbital parameters

Period: 103.863 minutes

Inclination: 99.9474 deg

SMA: 7319.257 km

Apoapsis: 952.981 km

Periapsis: 929.262 km

RAAN: 298.6986 deg

Eccentricy: 0.00162032

Argument of periapsis: 23.9534 deg

Mean anomaly: 336.2371 deg

Mean motion: 13.864438 rev/day

Mean motion (dot): 0.00001404 rev/day2

B* drag term: 0.0012527025 1/REarth

Two-line elements (TLE)

Creation date: Oct. 27, 2025, 2:46 a.m.

Reference frame: TEME

Reference center: EARTH

Epoch: Oct. 26, 2025, 5:09 p.m. UTC

TLE line 0: 0 THORAD AGENA D DEB

TLE line 1: 1 42503U 70025RH 25299.71522180 .00001404 00000-0 12527-2 0 9999

TLE line 2: 2 42503 99.9474 298.6986 0016203 23.9534 336.2371 13.86443800602004

Live tracking on map

Real-time ground track for satellite THORAD AGENA D DEB.

In-orbit conjunctions

A list of the most updated potential collisions computed for object THORAD AGENA D DEB.

Target Orbit TCA Probability of collision Miss distance Type
COSMOS 2346 LEO 2025-10-03 02:20:13 0.0001130167 69.0 (m) PAYLOAD
COSMOS 1275 DEB LEO 2025-07-13 20:24:45 0.0002254208 37.0 (m) DEBRIS

Associated space launch

Meteorological research and development satellite

THORAD AGENA D DEB was lifted into orbit during the mission ‘Thorad SLV-2G Agena D | Nimbus 4’, on board a Thorad SLV-2G Agena D space rocket.

The launch took place on April 8, 1970, 8:17 a.m. from Space Launch Complex 2E.

For more information about the launch, click the button.

Launch to space Thorad SLV-2G Agena D | Nimbus 4
Thorad SLV-2G Agena D | Nimbus 4

Agency: N/A

Status: Launch Successful

Launch date: April 8, 1970, 8:17 a.m. UTC

Rocket: Thorad SLV-2G Agena D

Launch pad: Space Launch Complex 2E

Location: Vandenberg SFB, CA, USA

...

Latest news about this satellite

There are no fresh news available about this satellite. Check back as we update our databases every day.


Newsletter sign-up

Weekly statistics, charts and insights to help you stay on top of the space industry.